Location: Newark
(39.9500°N, 8.6833°E)
Time: 19:07:11
(UTC+00:00)

NO-84 - Pass Details

Date: 25 February 2020
Orbit: 328 x 491 km, 55.0° (Epoch: 01 April)

Event Time Altitude Azimuth Distance (km) Brightness Sun altitude
Exits shadow 04:14:26 17° 355° (N) 1,278 ? -22.0°
Maximum altitude 04:16:00 22° 29° (NNE) 1,087 ? -21.7°
Drops below altitude 10° 04:18:54 10° 82° (E) 1,612 ? -21.2°
Sets 04:21:20 0° 98° (E) 2,453 ? -20.7°
